Location: Beugnon
(47.6222°N, 3.7850°E)
Time: 11:07:40
(UTC+00:00)

NOSS 3-4 (C) - Pass Details

Date: 09 April 2020
Orbit: 897 x 1316 km, 63.4° (Epoch: 21 May)

Event Time Altitude Azimuth Distance (km) Brightness Sun altitude
Rises 19:24:51 0° 318° (NW) 3,828 8.0 -10.1°
Reaches altitude 10° 19:27:24 10° 316° (NW) 2,928 7.2 -10.5°
Maximum altitude 19:34:21 69° 235° (SW) 1,241 4.2 -11.6°
Drops below altitude 10° 19:42:00 10° 154° (SSE) 3,209 5.7 -12.7°
Enters shadow 19:42:37 - 154° (SSE) 3,421 5.9 -12.8°
